Change the Weather History Date:

Friday, January 31, 2014

  Actual Average Record
Temperature  
Mean Temperature 56 °F -  
Max Temperature 62 °F 74 °F 87 °F (1975)
Min Temperature 50 °F 50 °F 24 °F (1966)
Degree Days  
Heating Degree Days 9    
Growing Degree Days 6 (Base 50)    
Moisture  
Dew Point -    
Average Humidity    
Maximum Humidity    
Minimum Humidity    
Precipitation  
Precipitation 0.16 in - - ()
Sea Level Pressure  
Sea Level Pressure 30.11 in    
Wind  
Wind Speed 6 mph (NE)    
Max Wind Speed 12 mph    
Max Gust Speed -    
Visibility 6 miles    
Events Rain    
Averages and records for this station are not official NWS values.
T = Trace of Precipitation, MM = Missing Value Source: NWS Daily Summary

Daily Weather History Graph

Daily Weather History Graph

Search for Another Location

Airport or City:

Trip Planner

Search our weather history database for the weather conditions in past years. The results will help you decide how hot, cold, wet, or windy it might be!

Date:

Astronomy

Jan. 31, 2014 Rise Set
Actual Time 7:16 AM EST 6:08 PM EST
Civil Twilight 6:51 AM EST 6:32 PM EST
Nautical Twilight 6:23 AM EST 7:00 PM EST
Astronomical Twilight 5:55 AM EST 7:28 PM EST
Moon 7:33 AM EST (1/31) 7:19 PM EST (1/31)
Length of Visible Light 11h 41m
Length of Day
10h 52m
New Moon, 1% of the Moon is Illuminated
Jan 31
New Moon
Feb 6
First Quarter
Feb 14
Full
Feb 22
Last Quarter
Mar 1
New

Hourly Weather History & Observations

Time (EST) Temp. Dew Point Humidity Pressure Visibility Wind Dir Wind Speed Gust Speed Precip Events Conditions
12:15 AM 51.8 °F - N/A% 30.14 in 7.0 mi ENE 5.8 mph - N/A   Overcast
12:35 AM 51.8 °F - N/A% 30.13 in 7.0 mi NNE 3.5 mph - N/A   Overcast
12:55 AM 51.8 °F - N/A% 30.14 in 7.0 mi North 4.6 mph - N/A   Overcast
1:15 AM 50.0 °F - N/A% 30.15 in 7.0 mi North 6.9 mph - N/A   Overcast
1:35 AM 50.0 °F - N/A% 30.14 in 4.0 mi NNE 6.9 mph - N/A   Haze
1:55 AM 50.0 °F - N/A% 30.14 in 1.5 mi NE 5.8 mph - N/A Rain Light Rain
2:15 AM 50.0 °F - N/A% 30.12 in 2.0 mi NE 5.8 mph - N/A Rain Light Rain
2:35 AM 50.0 °F - N/A% 30.11 in 2.5 mi ENE 8.1 mph - 0.01 in Rain Light Rain
2:55 AM 51.8 °F - N/A% 30.09 in 4.0 mi East 6.9 mph - 0.01 in Rain Light Rain
3:15 AM 51.8 °F - N/A% 30.09 in 5.0 mi ENE 5.8 mph - N/A Rain Light Rain
3:35 AM 51.8 °F - N/A% 30.08 in 7.0 mi ENE 5.8 mph - 0.01 in   Overcast
3:55 AM 51.8 °F - N/A% 30.09 in 7.0 mi ENE 5.8 mph - 0.01 in Rain Light Rain
4:15 AM 51.8 °F - N/A% 30.08 in 5.0 mi North - - 0.01 in Rain Light Rain
4:35 AM 51.8 °F - N/A% 30.09 in 5.0 mi NNE 4.6 mph - 0.01 in Rain Light Rain
4:55 AM 51.8 °F - N/A% 30.10 in 5.0 mi NNE 4.6 mph - 0.01 in   Haze
5:15 AM 51.8 °F - N/A% 30.11 in 5.0 mi NNE 4.6 mph - 0.01 in Rain Light Rain
5:35 AM 51.8 °F - N/A% 30.11 in 5.0 mi NE 6.9 mph - 0.01 in   Haze
5:55 AM 51.8 °F - N/A% 30.12 in 5.0 mi NNE 5.8 mph - 0.01 in   Light Drizzle
6:15 AM 50.0 °F - N/A% 30.12 in 7.0 mi NNE 5.8 mph - N/A   Light Drizzle
6:35 AM 50.0 °F - N/A% 30.12 in 7.0 mi NNE 4.6 mph - N/A Rain Light Rain
6:55 AM 50.0 °F - N/A% 30.13 in 7.0 mi NE 3.5 mph - 0.01 in Rain Light Rain
7:15 AM 51.8 °F - N/A% 30.13 in 7.0 mi NE 5.8 mph - N/A   Overcast
7:35 AM 51.8 °F - N/A% 30.12 in 7.0 mi NE 6.9 mph - N/A Rain Rain
7:55 AM 51.8 °F - N/A% 30.13 in 7.0 mi NNE 4.6 mph - N/A Rain Light Rain
8:15 AM 51.8 °F - N/A% 30.13 in 5.0 mi North 4.6 mph - 0.01 in   Drizzle
8:35 AM 51.8 °F - N/A% 30.14 in 5.0 mi NE 4.6 mph - 0.01 in Rain Light Rain
8:55 AM 53.6 °F - N/A% 30.14 in 7.0 mi ENE 6.9 mph - 0.01 in   Light Drizzle
9:15 AM 55.4 °F - N/A% 30.14 in 7.0 mi NE 6.9 mph - N/A   Overcast
9:35 AM 55.4 °F - N/A% 30.15 in 7.0 mi ENE 5.8 mph - 0.01 in   Light Drizzle
9:55 AM 55.4 °F - N/A% 30.15 in 7.0 mi ENE 6.9 mph - 0.01 in Rain Light Rain
10:15 AM 57.2 °F - N/A% 30.15 in 10.0 mi ENE 6.9 mph - N/A Rain Light Rain
10:35 AM 57.2 °F - N/A% 30.15 in 7.0 mi NE 9.2 mph - N/A Rain Light Rain
10:55 AM 57.2 °F - N/A% 30.15 in 10.0 mi NNE 5.8 mph - 0.01 in Rain Light Rain
11:15 AM 57.2 °F - N/A% 30.15 in 7.0 mi NE 4.6 mph - N/A Rain Light Rain
11:35 AM 57.2 °F - N/A% 30.13 in 5.0 mi NNE 5.8 mph - N/A Rain Light Rain
11:55 AM 55.4 °F - N/A% 30.13 in 7.0 mi NNE 8.1 mph - 0.01 in   Light Drizzle
12:15 PM 55.4 °F - N/A% 30.13 in 10.0 mi NE 8.1 mph - N/A   Overcast
12:35 PM 55.4 °F - N/A% 30.12 in 10.0 mi NE 9.2 mph - N/A Rain Light Rain
12:55 PM 57.2 °F - N/A% 30.10 in 7.0 mi ENE 11.5 mph - 0.01 in   Light Drizzle
1:15 PM 57.2 °F - N/A% 30.10 in 10.0 mi NE 9.2 mph - N/A   Overcast
1:35 PM 57.2 °F - N/A% 30.12 in 7.0 mi Calm Calm - N/A Rain Light Rain
1:55 PM 57.2 °F - N/A% 30.10 in 4.0 mi ESE 4.6 mph - 0.01 in Rain Light Rain
2:15 PM 59.0 °F - N/A% 30.09 in 5.0 mi Calm Calm - N/A Rain Rain
2:35 PM 59.0 °F - N/A% 30.07 in 10.0 mi ENE 8.1 mph - N/A   Light Drizzle
2:55 PM 60.8 °F - N/A% 30.07 in 10.0 mi East 8.1 mph - 0.01 in Rain Light Rain
3:15 PM 62.6 °F - N/A% 30.06 in 10.0 mi East 5.8 mph - N/A   Overcast
3:35 PM 62.6 °F - N/A% 30.04 in 10.0 mi East 9.2 mph - N/A   Overcast
3:55 PM 62.6 °F - N/A% 30.07 in 10.0 mi NW 6.9 mph - N/A   Overcast
4:15 PM 60.8 °F - N/A% 30.08 in 5.0 mi NNW 6.9 mph - 0.01 in   Haze
4:35 PM 60.8 °F - N/A% 30.08 in 4.0 mi North 8.1 mph - 0.01 in   Haze
4:55 PM 59.0 °F - N/A% 30.08 in 5.0 mi North 6.9 mph - 0.01 in   Haze
5:15 PM 60.8 °F - N/A% 30.09 in 3.0 mi NE 5.8 mph - N/A   Overcast
5:35 PM 60.8 °F - N/A% 30.09 in 2.5 mi NE 6.9 mph - 0.01 in   Overcast
5:55 PM 60.8 °F - N/A% 30.09 in 3.0 mi NE 8.1 mph - 0.01 in   Overcast
6:15 PM 60.8 °F - N/A% 30.10 in 5.0 mi NE 8.1 mph - N/A   Haze
6:35 PM 60.8 °F - N/A% 30.10 in 5.0 mi NE 4.6 mph - N/A   Haze
6:55 PM 60.8 °F - N/A% 30.10 in 5.0 mi NE 6.9 mph - N/A   Haze
7:15 PM 62.6 °F - N/A% 30.09 in 5.0 mi NE 6.9 mph - N/A   Haze
7:35 PM 62.6 °F - N/A% 30.10 in 4.0 mi NE 6.9 mph - N/A   Drizzle
7:55 PM 62.6 °F - N/A% 30.11 in 5.0 mi ENE 5.8 mph - 0.01 in Rain Light Rain
8:15 PM 62.6 °F - N/A% 30.12 in 7.0 mi NE 4.6 mph - N/A   Overcast
8:35 PM 62.6 °F - N/A% 30.12 in 5.0 mi NE 4.6 mph - N/A   Haze
8:55 PM 62.6 °F - N/A% 30.12 in 5.0 mi NE 6.9 mph - N/A   Haze
9:15 PM 62.6 °F - N/A% 30.12 in 5.0 mi ENE 6.9 mph - N/A   Haze
9:35 PM 62.6 °F - N/A% 30.12 in 5.0 mi NE 6.9 mph - N/A   Haze
9:55 PM 62.6 °F - N/A% 30.13 in 5.0 mi NE 4.6 mph - N/A   Haze
10:15 PM 62.6 °F - N/A% 30.13 in 5.0 mi NNE 3.5 mph - 0.01 in   Haze
10:35 PM 62.6 °F - N/A% 30.13 in 5.0 mi NE 5.8 mph - 0.01 in   Haze
10:55 PM 62.6 °F - N/A% 30.13 in 4.0 mi NE 3.5 mph - 0.01 in Rain Rain
11:15 PM 62.6 °F - N/A% 30.13 in 3.0 mi ENE 4.6 mph - N/A Rain Light Rain
11:35 PM 62.6 °F - N/A% 30.12 in 3.0 mi NE 5.8 mph - N/A   Drizzle
11:55 PM 62.6 °F - N/A% 30.11 in 3.0 mi ENE 5.8 mph - N/A   Light Drizzle